Time,TemperatureF,DewpointF,PressureIn,WindDirection,WindDirectionDegrees,WindSpeedMPH,WindSpeedGustMPH,Humidity,HourlyPrecipIn,Conditions,Clouds,dailyrainin,SoftwareType,DateUTC
2013-03-15 00:00:00,54.9,32.2,29.89,SSW,202,9.0,9.0,42,0.00,,,0.00,Wunderground v.1.15,2013-03-15 07:00:00,
2013-03-15 00:10:00,54.3,32.8,29.89,SW,215,8.0,8.0,44,0.00,,,0.00,Wunderground v.1.15,2013-03-15 07:10:00,
2013-03-15 00:20:00,53.7,32.8,29.89,WSW,249,9.0,9.0,45,0.00,,,0.00,Wunderground v.1.15,2013-03-15 07:20:00,
2013-03-15 00:30:00,53.1,33.9,29.89,SW,228,7.0,7.0,48,0.00,,,0.00,Wunderground v.1.15,2013-03-15 07:30:00,
2013-03-15 00:40:00,52.9,35.2,29.89,SW,229,7.0,9.0,51,0.00,,,0.00,Wunderground v.1.15,2013-03-15 07:40:00,
2013-03-15 00:50:00,52.8,34.7,29.89,WSW,243,8.0,8.0,50,0.00,,,0.00,Wunderground v.1.15,2013-03-15 07:50:00,
2013-03-15 01:00:00,52.5,34.4,29.89,SW,225,9.0,13.0,50,0.00,,,0.00,Wunderground v.1.15,2013-03-15 08:00:00,
2013-03-15 01:10:00,52.2,34.6,29.89,West,276,9.0,9.0,51,0.00,,,0.00,Wunderground v.1.15,2013-03-15 08:10:00,
2013-03-15 01:20:00,52.1,35.0,29.90,WSW,256,8.0,10.0,52,0.00,,,0.00,Wunderground v.1.15,2013-03-15 08:20:00,
2013-03-15 01:30:00,51.6,35.9,29.90,SSW,208,8.0,8.0,55,0.00,,,0.00,Wunderground v.1.15,2013-03-15 08:30:00,
2013-03-15 01:40:00,51.0,35.4,29.90,SW,235,8.0,12.0,55,0.00,,,0.00,Wunderground v.1.15,2013-03-15 08:40:00,
2013-03-15 01:50:00,50.6,35.9,29.91,WSW,249,9.0,9.0,57,0.00,,,0.00,Wunderground v.1.15,2013-03-15 08:50:00,
2013-03-15 02:00:00,50.2,36.0,29.91,SW,228,8.0,8.0,58,0.00,,,0.00,Wunderground v.1.15,2013-03-15 09:00:00,
2013-03-15 02:10:00,50.1,35.9,29.91,WSW,255,8.0,11.0,58,0.00,,,0.00,Wunderground v.1.15,2013-03-15 09:10:00,
2013-03-15 02:20:00,49.8,35.6,29.92,WSW,252,6.0,6.0,58,0.00,,,0.00,Wunderground v.1.15,2013-03-15 09:20:00,
2013-03-15 02:30:00,48.9,35.2,29.92,West,266,3.0,4.0,59,0.00,,,0.00,Wunderground v.1.15,2013-03-15 09:30:00,
2013-03-15 02:40:00,48.5,35.7,29.93,West,277,4.0,4.0,61,0.00,,,0.00,Wunderground v.1.15,2013-03-15 09:40:00,
2013-03-15 02:50:00,48.1,36.1,29.93,WNW,291,2.0,2.0,63,0.00,,,0.00,Wunderground v.1.15,2013-03-15 09:50:00,
2013-03-15 03:00:00,48.4,36.4,29.93,SW,236,5.0,5.0,63,0.00,,,0.00,Wunderground v.1.15,2013-03-15 10:00:00,
2013-03-15 03:10:00,48.3,36.3,29.93,WNW,286,5.0,5.0,63,0.00,,,0.00,Wunderground v.1.15,2013-03-15 10:10:00,
2013-03-15 03:20:00,48.0,36.0,29.94,WNW,288,4.0,4.0,63,0.00,,,0.00,Wunderground v.1.15,2013-03-15 10:20:00,
2013-03-15 03:30:00,47.1,35.9,29.94,SSW,210,2.0,2.0,65,0.00,,,0.00,Wunderground v.1.15,2013-03-15 10:30:00,
2013-03-15 03:40:00,45.6,35.6,29.95,ENE,68,1.0,1.0,68,0.00,,,0.00,Wunderground v.1.15,2013-03-15 10:40:00,
2013-03-15 03:50:00,46.0,36.0,29.95,East,101,1.0,2.0,68,0.00,,,0.00,Wunderground v.1.15,2013-03-15 10:50:00,
2013-03-15 04:00:00,46.4,36.0,29.95,ESE,117,2.0,2.0,67,0.00,,,0.00,Wunderground v.1.15,2013-03-15 11:00:00,
2013-03-15 04:10:00,46.1,35.7,29.95,ESE,122,2.0,2.0,67,0.00,,,0.00,Wunderground v.1.15,2013-03-15 11:10:00,
2013-03-15 04:20:00,46.0,35.7,29.96,SW,231,1.0,1.0,67,0.00,,,0.00,Wunderground v.1.15,2013-03-15 11:20:00,
2013-03-15 04:30:00,45.7,35.7,29.96,West,276,1.0,1.0,68,0.00,,,0.00,Wunderground v.1.15,2013-03-15 11:30:00,
2013-03-15 04:40:00,44.6,35.4,29.96,SW,222,2.0,2.0,70,0.00,,,0.00,Wunderground v.1.15,2013-03-15 11:40:00,
2013-03-15 04:50:00,43.9,35.1,29.96,West,276,2.0,2.0,71,0.00,,,0.00,Wunderground v.1.15,2013-03-15 11:50:00,
2013-03-15 05:00:00,43.7,35.3,29.96,WSW,239,2.0,3.0,72,0.00,,,0.00,Wunderground v.1.15,2013-03-15 12:00:00,
2013-03-15 05:10:00,44.0,35.6,29.97,West,268,1.0,1.0,72,0.00,,,0.00,Wunderground v.1.15,2013-03-15 12:10:00,
2013-03-15 05:20:00,43.7,35.3,29.98,WSW,240,1.0,2.0,72,0.00,,,0.00,Wunderground v.1.15,2013-03-15 12:20:00,
2013-03-15 05:30:00,43.2,35.1,29.98,WSW,242,2.0,4.0,73,0.00,,,0.00,Wunderground v.1.15,2013-03-15 12:30:00,
2013-03-15 05:40:00,43.0,35.3,29.98,SW,221,1.0,1.0,74,0.00,,,0.00,Wunderground v.1.15,2013-03-15 12:40:00,
2013-03-15 05:50:00,41.7,34.4,29.99,SE,131,0.0,0.0,75,0.00,,,0.00,Wunderground v.1.15,2013-03-15 12:50:00,
2013-03-15 06:00:00,41.6,34.9,29.99,SW,215,1.0,1.0,77,0.00,,,0.00,Wunderground v.1.15,2013-03-15 13:00:00,
2013-03-15 06:10:00,42.6,35.6,29.99,SW,224,1.0,1.0,76,0.00,,,0.00,Wunderground v.1.15,2013-03-15 13:10:00,
2013-03-15 06:20:00,40.0,33.7,29.99,ENE,63,0.0,0.0,78,0.00,,,0.00,Wunderground v.1.15,2013-03-15 13:20:00,
2013-03-15 06:30:00,39.8,34.1,29.99,East,81,0.0,0.0,80,0.00,,,0.00,Wunderground v.1.15,2013-03-15 13:30:00,
2013-03-15 06:40:00,40.0,34.9,29.98,East,81,0.0,0.0,82,0.00,,,0.00,Wunderground v.1.15,2013-03-15 13:40:00,
2013-03-15 06:50:00,39.7,33.7,29.98,ENE,64,0.0,1.0,79,0.00,,,0.00,Wunderground v.1.15,2013-03-15 13:50:00,
2013-03-15 07:00:00,37.7,33.0,29.99,NE,44,1.0,1.0,83,0.00,,,0.00,Wunderground v.1.15,2013-03-15 14:00:00,
2013-03-15 07:10:00,37.7,33.3,30.00,NE,44,1.0,3.0,84,0.00,,,0.00,Wunderground v.1.15,2013-03-15 14:10:00,
2013-03-15 07:20:00,38.8,34.7,30.00,NNE,22,3.0,3.0,85,0.00,,,0.00,Wunderground v.1.15,2013-03-15 14:20:00,
2013-03-15 07:30:00,40.4,35.9,30.00,NE,40,1.0,1.0,84,0.00,,,0.00,Wunderground v.1.15,2013-03-15 14:30:00,
2013-03-15 07:40:00,40.9,36.4,30.00,WSW,256,0.0,0.0,84,0.00,,,0.00,Wunderground v.1.15,2013-03-15 14:40:00,
2013-03-15 07:50:00,41.8,37.3,30.00,WSW,256,0.0,1.0,84,0.00,,,0.00,Wunderground v.1.15,2013-03-15 14:50:00,
2013-03-15 08:00:00,42.8,38.0,30.01,SW,226,1.0,1.0,83,0.00,,,0.00,Wunderground v.1.15,2013-03-15 15:00:00,
2013-03-15 08:10:00,44.0,38.5,30.01,SW,231,1.0,1.0,81,0.00,,,0.00,Wunderground v.1.15,2013-03-15 15:10:00,
2013-03-15 08:20:00,44.7,38.6,30.01,WSW,244,2.0,2.0,79,0.00,,,0.00,Wunderground v.1.15,2013-03-15 15:20:00,
2013-03-15 08:30:00,45.2,38.7,30.01,West,277,2.0,3.0,78,0.00,,,0.00,Wunderground v.1.15,2013-03-15 15:30:00,
2013-03-15 08:40:00,45.0,38.9,30.02,WSW,250,2.0,2.0,79,0.00,,,0.00,Wunderground v.1.15,2013-03-15 15:40:00,
2013-03-15 08:50:00,45.1,39.3,30.02,West,260,0.0,0.0,80,0.00,,,0.00,Wunderground v.1.15,2013-03-15 15:50:00,
2013-03-15 09:00:00,45.6,39.8,30.02,SW,235,0.0,0.0,80,0.00,,,0.00,Wunderground v.1.15,2013-03-15 16:00:00,
2013-03-15 09:10:00,45.5,39.7,30.03,West,266,1.0,1.0,80,0.00,,,0.00,Wunderground v.1.15,2013-03-15 16:10:00,
2013-03-15 09:20:00,45.9,39.8,30.03,West,266,0.0,0.0,79,0.00,,,0.00,Wunderground v.1.15,2013-03-15 16:20:00,
2013-03-15 09:30:00,46.1,39.3,30.03,North,11,0.0,1.0,77,0.00,,,0.00,Wunderground v.1.15,2013-03-15 16:30:00,
2013-03-15 09:40:00,46.3,39.1,30.03,ENE,71,0.0,2.0,76,0.00,,,0.00,Wunderground v.1.15,2013-03-15 16:40:00,
2013-03-15 09:50:00,46.9,40.1,30.03,NE,54,2.0,2.0,77,0.00,,,0.00,Wunderground v.1.15,2013-03-15 16:50:00,
2013-03-15 10:00:00,47.3,40.1,30.03,East,89,2.0,2.0,76,0.00,,,0.00,Wunderground v.1.15,2013-03-15 17:00:00,
2013-03-15 10:10:00,47.8,40.6,30.03,ENE,77,2.0,2.0,76,0.00,,,0.00,Wunderground v.1.15,2013-03-15 17:10:00,
2013-03-15 10:20:00,48.6,40.7,30.03,SE,131,1.0,2.0,74,0.00,,,0.00,Wunderground v.1.15,2013-03-15 17:20:00,
2013-03-15 10:30:00,48.9,41.0,30.03,WSW,238,0.0,1.0,74,0.00,,,0.00,Wunderground v.1.15,2013-03-15 17:30:00,
2013-03-15 10:40:00,49.1,40.8,30.03,NNE,27,1.0,1.0,73,0.00,,,0.00,Wunderground v.1.15,2013-03-15 17:40:00,
2013-03-15 10:50:00,49.1,40.8,30.03,West,280,1.0,1.0,73,0.00,,,0.00,Wunderground v.1.15,2013-03-15 17:50:00,
2013-03-15 11:00:00,49.4,41.1,30.03,SW,219,1.0,1.0,73,0.00,,,0.00,Wunderground v.1.15,2013-03-15 18:00:00,
2013-03-15 11:10:00,49.4,41.1,30.03,SW,225,1.0,1.0,73,0.00,,,0.00,Wunderground v.1.15,2013-03-15 18:10:00,
2013-03-15 11:20:00,49.0,40.7,30.03,WSW,240,4.0,4.0,73,0.00,,,0.00,Wunderground v.1.15,2013-03-15 18:20:00,
2013-03-15 11:30:00,49.3,41.4,30.03,South,181,1.0,2.0,74,0.00,,,0.00,Wunderground v.1.15,2013-03-15 18:30:00,
2013-03-15 11:40:00,49.9,41.2,30.03,SSW,201,2.0,2.0,72,0.00,,,0.00,Wunderground v.1.15,2013-03-15 18:40:00,
2013-03-15 11:50:00,50.4,41.3,30.03,East,98,1.0,1.0,71,0.00,,,0.00,Wunderground v.1.15,2013-03-15 18:50:00,
2013-03-15 12:00:00,51.0,41.2,30.02,WSW,243,3.0,3.0,69,0.00,,,0.00,Wunderground v.1.15,2013-03-15 19:00:00,
2013-03-15 12:10:00,51.5,41.7,30.02,ESE,103,1.0,2.0,69,0.00,,,0.00,Wunderground v.1.15,2013-03-15 19:10:00,
2013-03-15 12:20:00,52.5,41.9,30.02,ENE,77,2.0,2.0,67,0.00,,,0.00,Wunderground v.1.15,2013-03-15 19:20:00,
2013-03-15 12:30:00,53.1,42.0,30.02,NE,34,1.0,1.0,66,0.00,,,0.00,Wunderground v.1.15,2013-03-15 19:30:00,
2013-03-15 12:40:00,53.1,41.6,30.01,ENE,62,0.0,3.0,65,0.00,,,0.00,Wunderground v.1.15,2013-03-15 19:40:00,
2013-03-15 12:50:00,52.4,41.4,30.01,East,79,2.0,2.0,66,0.00,,,0.00,Wunderground v.1.15,2013-03-15 19:50:00,
2013-03-15 13:00:00,53.0,41.5,30.01,WSW,247,1.0,3.0,65,0.00,,,0.00,Wunderground v.1.15,2013-03-15 20:00:00,
2013-03-15 13:10:00,52.1,41.1,30.00,WNW,288,4.0,4.0,66,0.00,,,0.00,Wunderground v.1.15,2013-03-15 20:10:00,
2013-03-15 13:20:00,51.8,41.6,30.00,WNW,283,3.0,3.0,68,0.00,,,0.00,Wunderground v.1.15,2013-03-15 20:20:00,
2013-03-15 13:30:00,52.0,41.4,30.00,WSW,248,4.0,4.0,67,0.00,,,0.00,Wunderground v.1.15,2013-03-15 20:30:00,
2013-03-15 13:40:00,52.6,41.9,29.99,WSW,243,2.0,2.0,67,0.00,,,0.00,Wunderground v.1.15,2013-03-15 20:40:00,
2013-03-15 13:50:00,53.2,41.3,29.99,West,264,3.0,3.0,64,0.00,,,0.00,Wunderground v.1.15,2013-03-15 20:50:00,
2013-03-15 14:00:00,53.5,41.2,29.98,WSW,247,4.0,4.0,63,0.00,,,0.00,Wunderground v.1.15,2013-03-15 21:00:00,
2013-03-15 14:10:00,53.8,41.1,29.98,WSW,239,5.0,8.0,62,0.00,,,0.00,Wunderground v.1.15,2013-03-15 21:10:00,
2013-03-15 14:20:00,54.2,41.5,29.98,SW,236,6.0,6.0,62,0.00,,,0.00,Wunderground v.1.15,2013-03-15 21:20:00,
2013-03-15 14:30:00,54.7,41.1,29.97,West,278,5.0,5.0,60,0.00,,,0.00,Wunderground v.1.15,2013-03-15 21:30:00,
2013-03-15 14:40:00,54.3,41.1,29.97,SW,226,3.0,3.0,61,0.00,,,0.00,Wunderground v.1.15,2013-03-15 21:40:00,
2013-03-15 14:50:00,54.9,41.3,29.96,SSW,193,3.0,3.0,60,0.00,,,0.00,Wunderground v.1.15,2013-03-15 21:50:00,
2013-03-15 15:00:00,55.3,40.3,29.96,WSW,243,2.0,2.0,57,0.00,,,0.00,Wunderground v.1.15,2013-03-15 22:00:00,
2013-03-15 15:10:00,55.2,41.1,29.96,SW,215,2.0,2.0,59,0.00,,,0.00,Wunderground v.1.15,2013-03-15 22:10:00,
2013-03-15 15:20:00,55.2,40.7,29.95,SW,228,2.0,2.0,58,0.00,,,0.00,Wunderground v.1.15,2013-03-15 22:20:00,
2013-03-15 15:30:00,55.1,40.6,29.95,West,267,3.0,3.0,58,0.00,,,0.00,Wunderground v.1.15,2013-03-15 22:30:00,
2013-03-15 15:40:00,55.3,41.2,29.95,SW,231,1.0,3.0,59,0.00,,,0.00,Wunderground v.1.15,2013-03-15 22:40:00,
2013-03-15 15:50:00,54.9,40.8,29.95,WNW,289,2.0,2.0,59,0.00,,,0.00,Wunderground v.1.15,2013-03-15 22:50:00,
2013-03-15 16:00:00,55.6,41.5,29.95,WSW,239,0.0,0.0,59,0.00,,,0.00,Wunderground v.1.15,2013-03-15 23:00:00,
2013-03-15 16:10:00,55.9,42.6,29.95,NE,54,0.0,0.0,61,0.00,,,0.00,Wunderground v.1.15,2013-03-15 23:10:00,
2013-03-15 16:20:00,55.4,41.3,29.95,West,264,2.0,2.0,59,0.00,,,0.00,Wunderground v.1.15,2013-03-15 23:20:00,
2013-03-15 16:30:00,55.1,40.6,29.95,SW,233,2.0,3.0,58,0.00,,,0.00,Wunderground v.1.15,2013-03-15 23:30:00,
2013-03-15 16:40:00,55.2,40.2,29.94,SW,226,3.0,6.0,57,0.00,,,0.00,Wunderground v.1.15,2013-03-15 23:40:00,
2013-03-15 16:50:00,55.8,40.8,29.94,WSW,243,3.0,3.0,57,0.00,,,0.00,Wunderground v.1.15,2013-03-15 23:50:00,
2013-03-15 17:00:00,56.1,40.6,29.94,SW,229,3.0,3.0,56,0.00,,,0.00,Wunderground v.1.15,2013-03-16 00:00:00,
2013-03-15 17:10:00,56.1,40.1,29.94,SW,220,4.0,7.0,55,0.00,,,0.00,Wunderground v.1.15,2013-03-16 00:10:00,
2013-03-15 17:20:00,55.6,38.7,29.94,SW,228,6.0,6.0,53,0.00,,,0.00,Wunderground v.1.15,2013-03-16 00:20:00,
2013-03-15 17:30:00,55.3,38.4,29.93,SW,226,6.0,6.0,53,0.00,,,0.00,Wunderground v.1.15,2013-03-16 00:30:00,
2013-03-15 17:40:00,54.8,39.8,29.94,WSW,242,7.0,10.0,57,0.00,,,0.00,Wunderground v.1.15,2013-03-16 00:40:00,
2013-03-15 17:50:00,54.0,40.4,29.94,WSW,246,8.0,8.0,60,0.00,,,0.00,Wunderground v.1.15,2013-03-16 00:50:00,
2013-03-15 18:00:00,52.8,40.5,29.94,SW,225,4.0,5.0,63,0.00,,,0.00,Wunderground v.1.15,2013-03-16 01:00:00,
2013-03-15 18:10:00,52.6,40.8,29.94,West,278,3.0,3.0,64,0.00,,,0.00,Wunderground v.1.15,2013-03-16 01:10:00,
2013-03-15 18:20:00,51.4,42.3,29.94,West,263,2.0,2.0,71,0.00,,,0.00,Wunderground v.1.15,2013-03-16 01:20:00,
2013-03-15 18:30:00,50.5,42.2,29.94,SE,141,1.0,1.0,73,0.00,,,0.00,Wunderground v.1.15,2013-03-16 01:30:00,
2013-03-15 18:40:00,49.4,42.1,29.94,WSW,257,1.0,1.0,76,0.00,,,0.00,Wunderground v.1.15,2013-03-16 01:40:00,
2013-03-15 18:50:00,48.4,42.2,29.94,East,87,2.0,2.0,79,0.00,,,0.01,Wunderground v.1.15,2013-03-16 01:50:00,
2013-03-15 19:00:00,47.8,41.9,29.95,SW,225,1.0,1.0,80,0.00,,,0.01,Wunderground v.1.15,2013-03-16 02:00:00,
2013-03-15 19:10:00,47.6,41.7,29.94,East,98,0.0,0.0,80,0.00,,,0.01,Wunderground v.1.15,2013-03-16 02:10:00,
2013-03-15 19:20:00,47.7,41.8,29.94,SE,138,0.0,0.0,80,0.00,,,0.01,Wunderground v.1.15,2013-03-16 02:20:00,
2013-03-15 19:30:00,47.7,42.5,29.94,East,86,0.0,2.0,82,0.00,,,0.01,Wunderground v.1.15,2013-03-16 02:30:00,
2013-03-15 19:40:00,47.4,42.5,29.94,SSW,201,1.0,3.0,83,0.00,,,0.01,Wunderground v.1.15,2013-03-16 02:40:00,
2013-03-15 19:50:00,48.6,41.0,29.93,SSW,202,3.0,3.0,75,0.00,,,0.02,Wunderground v.1.15,2013-03-16 02:50:00,
2013-03-15 20:00:00,48.5,42.0,29.94,ESE,105,2.0,2.0,78,0.00,,,0.02,Wunderground v.1.15,2013-03-16 03:00:00,
2013-03-15 20:10:00,47.9,41.7,29.93,ENE,69,1.0,3.0,79,0.00,,,0.02,Wunderground v.1.15,2013-03-16 03:10:00,
2013-03-15 20:20:00,46.0,40.8,29.93,NE,44,3.0,3.0,82,0.00,,,0.02,Wunderground v.1.15,2013-03-16 03:20:00,
2013-03-15 20:30:00,45.9,41.0,29.93,SE,132,1.0,1.0,83,0.00,,,0.02,Wunderground v.1.15,2013-03-16 03:30:00,
2013-03-15 20:40:00,44.6,40.1,29.94,NE,55,1.0,1.0,84,0.00,,,0.02,Wunderground v.1.15,2013-03-16 03:40:00,
2013-03-15 20:50:00,43.9,40.0,29.94,ENE,60,2.0,2.0,86,0.00,,,0.02,Wunderground v.1.15,2013-03-16 03:50:00,
2013-03-15 21:00:00,43.8,39.9,29.94,ENE,60,1.0,1.0,86,0.00,,,0.02,Wunderground v.1.15,2013-03-16 04:00:00,
2013-03-15 21:05:00,43.7,39.8,29.94,ENE,64,1.0,1.0,86,0.00,,,0.02,Wunderground v.1.15,2013-03-16 04:05:00,
2013-03-15 21:10:00,43.6,39.7,29.94,NE,47,1.0,1.0,86,0.00,,,0.02,Wunderground v.1.15,2013-03-16 04:10:00,
2013-03-15 21:15:00,43.2,39.6,29.94,NE,36,1.0,1.0,87,0.00,,,0.02,Wunderground v.1.15,2013-03-16 04:15:00,
2013-03-15 21:20:00,43.1,39.5,29.94,NE,36,0.0,0.0,87,0.00,,,0.02,Wunderground v.1.15,2013-03-16 04:20:00,
2013-03-15 21:30:00,42.4,39.4,29.94,WNW,293,0.0,0.0,89,0.00,,,0.02,Wunderground v.1.15,2013-03-16 04:30:00,
2013-03-15 21:35:00,42.1,39.1,29.94,West,266,0.0,0.0,89,0.00,,,0.02,Wunderground v.1.15,2013-03-16 04:35:00,
2013-03-15 21:40:00,41.8,39.1,29.94,West,269,0.0,0.0,90,0.00,,,0.02,Wunderground v.1.15,2013-03-16 04:40:00,
2013-03-15 21:50:00,41.3,38.9,29.94,West,269,0.0,0.0,91,0.00,,,0.02,Wunderground v.1.15,2013-03-16 04:50:00,
2013-03-15 22:00:00,40.9,38.8,29.94,North,352,0.0,0.0,92,0.00,,,0.02,Wunderground v.1.15,2013-03-16 05:00:00,
2013-03-15 22:10:00,40.9,38.5,29.94,NNE,30,0.0,0.0,91,0.00,,,0.02,Wunderground v.1.15,2013-03-16 05:10:00,
2013-03-15 22:20:00,40.6,38.5,29.94,NNE,30,0.0,0.0,92,0.00,,,0.02,Wunderground v.1.15,2013-03-16 05:20:00,
2013-03-15 22:30:00,40.4,38.3,29.94,NNE,28,0.0,0.0,92,0.00,,,0.02,Wunderground v.1.15,2013-03-16 05:30:00,
2013-03-15 22:40:00,40.1,38.2,29.95,North,360,0.0,0.0,93,0.00,,,0.02,Wunderground v.1.15,2013-03-16 05:40:00,
2013-03-15 22:50:00,39.5,37.4,29.95,NE,40,0.0,1.0,92,0.00,,,0.02,Wunderground v.1.15,2013-03-16 05:50:00,
2013-03-15 23:00:00,39.3,37.4,29.94,NE,56,1.0,2.0,93,0.00,,,0.02,Wunderground v.1.15,2013-03-16 06:00:00,
2013-03-15 23:10:00,40.2,38.3,29.94,NE,44,1.0,1.0,93,0.00,,,0.02,Wunderground v.1.15,2013-03-16 06:10:00,
2013-03-15 23:20:00,40.5,38.4,29.94,ENE,60,0.0,0.0,92,0.00,,,0.02,Wunderground v.1.15,2013-03-16 06:20:00,
2013-03-15 23:30:00,40.7,38.8,29.94,ENE,74,0.0,1.0,93,0.00,,,0.02,Wunderground v.1.15,2013-03-16 06:30:00,
2013-03-15 23:40:00,41.9,39.2,29.93,East,79,0.0,0.0,90,0.00,,,0.02,Wunderground v.1.15,2013-03-16 06:40:00,
2013-03-15 23:50:00,42.5,39.5,29.93,West,270,0.0,0.0,89,0.00,,,0.02,Wunderground v.1.15,2013-03-16 06:50:00,